Regional Weather Roundup
Issued by NWS Goodland, KS

Home | Current Version | Previous Version | Text Only | Print | Product List | Glossary On
Versions: 1 2 3 4 5 6 7 8 9 10 11 12 13 14 15 16 17 18 19 20 21 22 23 24 25 26 27 28 29 30 31 32 33 34 35 36 37 38 39 40 41 42 43 44 45 46 47 48 49 50
000
ASUS43 KGLD 030959
RWRGLD

GOODLAND FORECAST AREA HOURLY WEATHER ROUNDUP
NATIONAL WEATHER SERVICE GOODLAND KS
400 AM MDT TUE MAY 03 2016

...OFFICIAL OBSERVATIONS...

CITY           SKY/WX    TMP DP  RH WIND       PRES   REMARKS
GOODLAND KS    MOCLDY    44  39  82 W5        30.04R
HILL CITY KS   LGT RAIN  52  40  63 NW10      30.03S
IMPERIAL NEB   CLOUDY    44  42  93 NE6       30.05S
MCCOOK NEB     MOCLDY    41  40  96 NW7       30.04R
AKRON CO       CLEAR     38  33  82 W12       30.08R
BURLINGTON CO  CLOUDY    43  34  70 W9        30.07S
LIMON CO       CLOUDY    39  32  76 N10       30.15R
$$

...UNOFFICIAL OBSERVATIONS...

CITY           SKY/WX    TMP DP  RH WIND       PRES   REMARKS
COLBY KS       MOCLDY    45  45 100 CALM      30.03F
LENORA KS        N/A     49  32  52 MISG        N/A
NORTON KS      DRIZZLE   48  41  76 N8        30.02F
SHARON SPRINGS   N/A     46  37  71 SW6         N/A
TRIBUNE KS     CLOUDY    46  36  66 W3        30.06F
KIT CARSON CO    N/A     47  35  64 MISG        N/A
YUMA CO          N/A     38  34  85 CALM        N/A
$$



USA.gov is the U.S. government's official web portal to all federal, state and local government web resources and services.